Location: *
(57.8420°S, 159.8600°W)
Time: 04:33:55
(UTC+00:00)

Cosmos 1328 Rocket - Pass Details

Date: 18 May 2021
Orbit: 600 x 627 km, 82.5° (Epoch: 20 June)

Event Time Altitude Azimuth Distance (km) Brightness Sun altitude
Rises 05:53:38 0° 196° (SSW) 2,949 7.3 -26.8°
Reaches altitude 10° 05:55:56 10° 200° (SSW) 2,039 6.5 -27.1°
Maximum altitude 06:00:19 53° 275° (W) 792 4.3 -27.7°
Enters shadow 06:01:04 47° 310° (NW) 851 4.4 -27.8°
